Regional Weather Roundup
Issued by NWS Little Rock, AR

Home | Current Version | Previous Version | Graphics & Text | Print | Product List | Glossary On
Versions: 1 2 3 4 5 6 7 8 9 10 11 12 13 14 15 16 17 18 19 20 21 22 23 24 25 26 27 28 29 30
000
ASUS44 KLZK 170905
RWRLZK

WEATHER ROUNDUP FOR ARKANSAS
NATIONAL WEATHER SERVICE LITTLE ROCK AR
300 AM CST SAT FEB 17 2018

NOTE: "FAIR" INDICATES FEW OR NO CLOUDS BELOW 12,000 FEET WITH NO
SIGNIFICANT WEATHER AND/OR OBSTRUCTIONS TO VISIBILITY.

ARZ001-003-010-029-171000-
NORTHWEST ARKANSAS

CITY           SKY/WX    TMP DP  RH WIND       PRES   REMARKS
FAYETTEVILLE   LGT RAIN  39  39 100 CALM      30.06F FOG
FORT SMITH     LGT RAIN  43  39  86 E12       30.07F
HARRISON         N/A    N/A N/A N/A MISG      30.07F
BENTONVILLE    LGT RAIN  37  35  92 E7        30.08F
ROGERS         RAIN      37  34  89 E6        30.07F
SILOAM SPGS    LGT RAIN  37  36  96 VRB3      30.08F FOG
HIGHFILL       RAIN      38  36  92 E3        30.06
$$

ARZ004-005-016-171000-
NORTH CENTRAL ARKANSAS

CITY           SKY/WX    TMP DP  RH WIND       PRES   REMARKS
BATESVILLE     LGT RAIN  39  35  86 NE7       30.13F
FLIPPIN        LGT RAIN  38  36  92 SE8       30.12F
MTN HOME       LGT RAIN  37  36  96 S9        30.12F
$$

ARZ040-041-171000-
WEST CENTRAL ARKANSAS

CITY           SKY/WX    TMP DP  RH WIND       PRES   REMARKS
MENA           CLOUDY    45  43  93 NE3       30.05F
MOUNT IDA      CLOUDY    45  39  79 VRB3      30.03F
$$

ARZ009-017-025-026-028-171000-
NORTHEAST ARKANSAS

CITY           SKY/WX    TMP DP  RH WIND       PRES   REMARKS
JONESBORO      RAIN      40  37  89 E10       30.14F
NEWPORT        LGT RAIN  39  36  89 NE12      30.15F
WALNUT RIDGE   LGT RAIN  38  35  89 NE7       30.16F
BLYTHEVILLE    LGT RAIN  41  37  86 E6        30.15F
$$

ARZ022-023-033-042-044-171000-
CENTRAL ARKANSAS

CITY           SKY/WX    TMP DP  RH WIND       PRES   REMARKS
LITTLE ROCK    CLOUDY    41  39  93 E8        30.12F
N LITTLE ROCK    N/A     40  38  94 E6        30.09F
JACKSONVILLE   CLOUDY    41  38  90 E6        30.12F
SEARCY         CLOUDY    41  39  93 NE12      30.13F
HOT SPRINGS    CLOUDY    45  40  82 SE9       30.08F
RUSSELLVILLE   CLOUDY    42  40  92 VRB5      30.09F
CLINTON        LGT RAIN  41  37  87 CALM      30.14F
$$

ARZ036-171000-
EAST ARKANSAS

CITY           SKY/WX    TMP DP  RH WIND       PRES   REMARKS
WEST MEMPHIS   LGT RAIN  43  39  86 E6        30.12F
$$

ARZ050-053-066-070-073-171000-
SOUTHWEST ARKANSAS

CITY           SKY/WX    TMP DP  RH WIND       PRES   REMARKS
ARKADELPHIA    LGT RAIN  44  41  89 E3        30.10F
CAMDEN         DRIZZLE   46  41  81 CALM      30.08F
TEXARKANA      CLOUDY    48  43  82 SE6       30.05F
EL DORADO      CLOUDY    47  46  97 E6        30.08F
DE QUEEN       CLOUDY    46  41  82 E9        30.04F
$$

ARZ056-057-069-171000-
SOUTHEAST ARKANSAS

CITY           SKY/WX    TMP DP  RH WIND       PRES   REMARKS
PINE BLUFF     LGT RAIN  43  39  86 E5        30.12F
STUTTGART      LGT RAIN  42  39  89 E12       30.11F
MONTICELLO     CLOUDY    45  40  82 NE7       30.10F

$$






USA.gov is the U.S. government's official web portal to all federal, state and local government web resources and services.